Telferner, TX

11:51 AM CST on February 08, 2016 (GMT -0600)
Victoria Regional

Weather History for KVCT - March, 2013

Change the Weather History Date:

Monday, March 4, 2013

  Actual Average Record
Temperature  
Mean Temperature 69 °F 61 °F  
Max Temperature 81 °F 72 °F 89 °F (1925)
Min Temperature 56 °F 50 °F 21 °F (2002)
Degree Days  
Heating Degree Days 0 6  
Month to date heating degree days 39 24  
Since 1 July heating degree days 854 1117  
Cooling Degree Days 4 2  
Month to date cooling degree days 4 7  
Year to date cooling degree days 63 45  
Growing Degree Days 20 (Base 50)    
Moisture  
Dew Point 56 °F    
Average Humidity 64    
Maximum Humidity 86    
Minimum Humidity 42    
Precipitation  
Precipitation 0.00 in 0.09 in 0.64 in (2014)
Month to date precipitation 0.00 0.34  
Year to date precipitation 4.09 4.94  
Snow  
Snow 0.00 in - - ()
Month to date snowfall 0.0  
Since 1 July snowfall 0.0  
Snow Depth 0.00 in    
Sea Level Pressure  
Sea Level Pressure 29.86 in    
Wind  
Wind Speed 17 mph (South)    
Max Wind Speed 30 mph    
Max Gust Speed 37 mph    
Visibility 10 miles    
Events      
T = Trace of Precipitation, MM = Missing Value Source: NWS Daily Summary

Daily Weather History Graph

Daily Weather History Graph

Search for Another Location

Airport or City:

Trip Planner

Search our weather history database for the weather conditions in past years. The results will help you decide how hot, cold, wet, or windy it might be!

Date:

Astronomy

Mar. 04, 2013 Rise Set
Actual Time 6:49 AM CST 6:29 PM CST
Civil Twilight 6:25 AM CST 6:53 PM CST
Nautical Twilight 5:58 AM CST 7:20 PM CST
Astronomical Twilight 5:30 AM CST 7:48 PM CST
Moon 12:41 AM CST (3/4) 11:32 AM CST (3/4)
Length of Visible Light 12h 27m
Length of Day
11h 40m
Waning Gibbous, 52% of the Moon is Illuminated
Mar 4
Waning Gibbous
Mar 4
Last Quarter
Mar 11
New
Mar 19
First Quarter
Mar 27
Full

Hourly Weather History & Observations

Time (CST) Temp. Heat Index Dew Point Humidity Pressure Visibility Wind Dir Wind Speed Gust Speed Precip Events Conditions
12:51 AM 57.0 °F - 52.0 °F 83% 29.99 in 10.0 mi South 9.2 mph - N/A   Clear
1:51 AM 57.0 °F - 52.0 °F 83% 29.97 in 10.0 mi South 10.4 mph - N/A   Clear
2:51 AM 57.9 °F - 53.1 °F 84% 29.95 in 10.0 mi South 11.5 mph - N/A   Clear
3:51 AM 59.0 °F - 52.0 °F 78% 29.93 in 10.0 mi South 12.7 mph - N/A   Clear
4:51 AM 57.9 °F - 53.1 °F 84% 29.91 in 10.0 mi South 12.7 mph - N/A   Clear
5:51 AM 60.1 °F - 54.0 °F 80% 29.92 in 10.0 mi South 12.7 mph - N/A   Clear
6:51 AM 60.1 °F - 55.0 °F 83% 29.92 in 10.0 mi South 13.8 mph - N/A   Clear
7:51 AM 63.0 °F - 55.9 °F 78% 29.92 in 10.0 mi South 16.1 mph 26.5 mph N/A   Clear
8:51 AM 66.9 °F - 57.0 °F 70% 29.92 in 10.0 mi South 20.7 mph 32.2 mph N/A   Clear
9:51 AM 71.1 °F - 55.0 °F 57% 29.92 in 10.0 mi South 25.3 mph 32.2 mph N/A   Clear
10:51 AM 73.9 °F - 55.0 °F 52% 29.91 in 10.0 mi South 19.6 mph 27.6 mph N/A   Clear
11:51 AM 75.9 °F - 55.0 °F 48% 29.88 in 10.0 mi South 18.4 mph 28.8 mph N/A   Clear
12:51 PM 79.0 °F - 55.0 °F 44% 29.84 in 10.0 mi South 17.3 mph 24.2 mph N/A   Clear
1:51 PM 80.1 °F 80.2 °F 55.9 °F 43% 29.81 in 10.0 mi South 19.6 mph 24.2 mph N/A   Clear
2:51 PM 80.1 °F 80.4 °F 57.0 °F 45% 29.79 in 10.0 mi South 19.6 mph 25.3 mph N/A   Clear
3:51 PM 80.1 °F 80.4 °F 57.0 °F 45% 29.78 in 10.0 mi South 21.9 mph 25.3 mph N/A   Clear
4:51 PM 77.0 °F - 55.9 °F 48% 29.78 in 10.0 mi South 17.3 mph 26.5 mph N/A   Clear
5:51 PM 73.0 °F - 57.0 °F 57% 29.78 in 10.0 mi South 18.4 mph - N/A   Clear
6:51 PM 69.1 °F - 59.0 °F 70% 29.79 in 10.0 mi South 19.6 mph 28.8 mph N/A   Clear
7:51 PM 66.9 °F - 59.0 °F 76% 29.79 in 10.0 mi South 18.4 mph - N/A   Clear
8:51 PM 66.9 °F - 60.1 °F 79% 29.80 in 10.0 mi South 20.7 mph 28.8 mph N/A   Clear
9:51 PM 66.0 °F - 60.1 °F 81% 29.79 in 10.0 mi South 19.6 mph 29.9 mph N/A   Clear
10:51 PM 66.0 °F - 61.0 °F 84% 29.81 in 10.0 mi South 17.3 mph 24.2 mph N/A   Clear
11:51 PM 66.0 °F - 61.0 °F 84% 29.81 in 10.0 mi South 18.4 mph 25.3 mph N/A   Partly Cloudy